Total_Precipitation_Accumulation
0.49 0.49 0.47 0.47 0.46 0.46 0.45 0.42 0.41 0.40 0.40 0.35 0.32 0.29 0.26 0.25 0.28 0.31 0.29 0.28 0.30 0.36 0.42 0.47 0.52 0.59 0.66 0.68 0.72 0.73 0.76 0.86 0.80 0.68 0.78 0.86 0.79 0.62 0.53 0.54 0.55 0.56 0.53
0.36 0.37 0.40 0.43 0.42 0.41 0.40 0.39 0.40 0.38 0.38 0.37 0.34 0.29 0.24 0.22 0.28 0.33 0.33 0.31 0.32 0.35 0.42 0.52 0.54 0.56 0.63 0.71 0.81 0.83 0.84 0.97 0.95 0.80 0.86 0.95 0.87 0.76 0.64 0.56 0.46 0.44 0.46
0.28 0.28 0.34 0.43 0.43 0.40 0.36 0.38 0.39 0.39 0.41 0.39 0.38 0.35 0.30 0.27 0.28 0.30 0.33 0.36 0.39 0.42 0.47 0.54 0.60 0.66 0.69 0.73 0.81 0.84 0.89 1.04 1.09 0.99 0.97 1.09 1.12 0.91 0.71 0.55 0.45 0.46 0.41
0.38 0.39 0.42 0.48 0.50 0.47 0.39 0.39 0.39 0.41 0.42 0.45 0.47 0.47 0.43 0.38 0.34 0.33 0.35 0.36 0.41 0.48 0.55 0.57 0.60 0.69 0.76 0.81 0.88 0.99 1.06 1.14 1.22 1.18 1.18 1.29 1.29 1.16 0.93 0.66 0.56 0.54 0.49
0.56 0.61 0.66 0.69 0.68 0.59 0.54 0.54 0.55 0.57 0.59 0.68 0.71 0.65 0.59 0.51 0.41 0.41 0.42 0.38 0.45 0.46 0.50 0.56 0.57 0.60 0.67 0.78 0.84 0.95 1.11 1.25 1.41 1.46 1.45 1.60 1.56 1.39 1.14 0.83 0.70 0.62 0.57
0.53 0.57 0.63 0.72 0.74 0.68 0.65 0.69 0.73 0.76 0.83 0.88 0.85 0.81 0.78 0.61 0.56 0.51 0.45 0.44 0.46 0.47 0.50 0.56 0.55 0.52 0.52 0.58 0.67 0.79 0.92 1.08 1.28 1.47 1.60 1.69 1.75 1.62 1.42 1.16 0.84 0.64 0.57
0.60 0.70 0.75 0.81 0.86 0.84 0.84 0.88 0.89 0.89 0.89 0.91 0.88 0.85 0.82 0.77 0.64 0.50 0.44 0.43 0.45 0.49 0.52 0.54 0.47 0.40 0.45 0.47 0.52 0.57 0.65 0.75 0.90 1.11 1.30 1.40 1.59 1.72 1.59 1.29 1.02 0.82 0.65
0.63 0.70 0.77 0.86 0.93 0.99 1.08 1.11 1.13 1.14 1.10 1.05 0.97 0.93 0.91 0.85 0.72 0.58 0.52 0.47 0.47 0.49 0.51 0.52 0.50 0.44 0.44 0.49 0.54 0.52 0.51 0.53 0.61 0.71 0.85 1.08 1.29 1.52 1.58 1.46 1.36 1.10 0.84
0.76 0.82 0.88 0.95 1.04 1.11 1.15 1.18 1.22 1.26 1.19 1.13 1.08 1.05 1.03 0.98 0.84 0.65 0.56 0.52 0.54 0.52 0.52 0.53 0.56 0.49 0.44 0.40 0.46 0.47 0.46 0.45 0.44 0.52 0.63 0.83 1.07 1.24 1.43 1.43 1.32 1.18 0.95
0.90 0.90 0.92 1.05 1.11 1.13 1.12 1.14 1.14 1.15 1.07 1.02 1.00 1.03 1.06 1.04 0.93 0.68 0.57 0.52 0.56 0.58 0.62 0.63 0.58 0.48 0.44 0.35 0.40 0.44 0.42 0.41 0.46 0.46 0.51 0.59 0.72 0.96 1.17 1.21 1.13 1.07 0.94
0.89 0.90 0.94 1.02 1.12 1.11 1.12 1.08 1.02 0.96 0.94 0.94 0.94 0.95 0.99 0.98 0.85 0.56 0.49 0.53 0.60 0.65 0.65 0.64 0.63 0.53 0.41 0.33 0.33 0.38 0.36 0.39 0.49 0.53 0.53 0.59 0.70 0.82 1.01 1.10 1.09 0.97 0.86
0.78 0.79 0.83 0.84 0.86 0.90 0.97 0.96 0.91 0.91 0.90 0.90 0.96 0.99 1.01 1.00 0.88 0.63 0.42 0.41 0.51 0.60 0.63 0.65 0.66 0.57 0.45 0.38 0.30 0.28 0.28 0.30 0.41 0.47 0.50 0.52 0.59 0.67 0.83 1.05 1.17 1.10 0.92
0.73 0.75 0.75 0.73 0.78 0.85 0.86 0.81 0.75 0.74 0.72 0.75 0.91 1.03 1.06 1.06 0.96 0.70 0.48 0.39 0.44 0.54 0.63 0.75 0.75 0.62 0.56 0.50 0.40 0.32 0.29 0.28 0.36 0.44 0.42 0.44 0.48 0.57 0.75 1.05 1.29 1.43 1.29
0.72 0.71 0.72 0.74 0.71 0.71 0.75 0.72 0.68 0.64 0.61 0.65 0.84 0.99 1.07 1.08 1.01 0.82 0.64 0.51 0.49 0.53 0.59 0.70 0.76 0.75 0.71 0.63 0.53 0.40 0.32 0.32 0.35 0.41 0.46 0.50 0.58 0.68 0.80 0.88 1.10 1.29 1.36
0.65 0.61 0.59 0.60 0.60 0.58 0.63 0.67 0.60 0.59 0.55 0.55 0.71 0.94 1.00 0.92 0.77 0.62 0.53 0.54 0.52 0.56 0.62 0.78 0.91 0.96 0.98 0.92 0.79 0.65 0.54 0.50 0.47 0.48 0.58 0.62 0.68 0.71 0.74 0.79 0.94 1.09 1.10
0.68 0.60 0.53 0.51 0.53 0.54 0.58 0.60 0.54 0.42 0.37 0.32 0.36 0.49 0.60 0.54 0.44 0.39 0.35 0.35 0.33 0.35 0.47 0.72 0.99 1.09 1.14 1.13 1.03 0.87 0.75 0.69 0.65 0.65 0.70 0.72 0.73 0.77 0.80 0.85 0.93 1.03 1.02
0.67 0.61 0.53 0.47 0.45 0.44 0.46 0.51 0.54 0.48 0.30 0.23 0.19 0.22 0.27 0.28 0.30 0.37 0.37 0.31 0.26 0.24 0.33 0.54 0.83 1.05 1.15 1.20 1.15 0.99 0.84 0.80 0.83 0.80 0.78 0.78 0.77 0.78 0.85 0.90 0.93 0.98 1.02
0.47 0.45 0.42 0.39 0.39 0.39 0.41 0.44 0.47 0.53 0.53 0.43 0.27 0.19 0.18 0.18 0.23 0.40 0.48 0.35 0.27 0.24 0.30 0.46 0.71 0.97 1.08 1.15 1.14 1.08 0.98 0.94 0.95 0.91 0.87 0.85 0.83 0.84 0.82 0.85 0.89 0.92 0.95
0.46 0.41 0.36 0.34 0.35 0.37 0.40 0.40 0.41 0.46 0.56 0.63 0.57 0.33 0.23 0.22 0.25 0.46 0.59 0.43 0.36 0.38 0.40 0.46 0.61 0.83 0.98 1.07 1.09 1.07 1.03 1.02 1.01 1.01 0.98 0.95 0.92 0.93 0.89 0.84 0.88 0.95 0.99
0.35 0.31 0.27 0.25 0.26 0.31 0.34 0.35 0.39 0.50 0.60 0.72 0.74 0.50 0.32 0.30 0.36 0.61 0.74 0.59 0.51 0.51 0.50 0.52 0.59 0.75 0.91 1.03 1.06 1.04 1.07 1.06 1.08 1.07 1.04 1.01 0.96 0.96 0.97 0.95 0.96 1.00 0.96
0.29 0.25 0.20 0.18 0.22 0.25 0.29 0.33 0.38 0.50 0.63 0.72 0.67 0.44 0.32 0.33 0.44 0.66 0.84 0.75 0.66 0.65 0.62 0.59 0.63 0.75 0.85 0.96 0.99 0.98 1.01 1.08 1.08 1.07 1.05 1.05 1.02 1.00 1.02 1.04 1.02 1.06 1.04
0.24 0.21 0.19 0.19 0.22 0.25 0.26 0.34 0.42 0.55 0.66 0.72 0.61 0.42 0.37 0.43 0.54 0.70 0.77 0.74 0.71 0.68 0.65 0.65 0.71 0.80 0.86 0.92 0.95 0.99 1.03 1.07 1.07 1.08 1.12 1.12 1.11 1.09 1.11 1.09 1.06 1.08 1.11
0.22 0.20 0.19 0.20 0.23 0.21 0.26 0.35 0.41 0.50 0.62 0.69 0.60 0.54 0.54 0.63 0.66 0.71 0.77 0.77 0.74 0.71 0.67 0.71 0.76 0.78 0.81 0.84 0.83 0.89 0.96 0.97 0.97 1.00 1.08 1.12 1.14 1.12 1.09 1.05 1.02 1.04 1.07
0.20 0.20 0.19 0.20 0.21 0.23 0.28 0.34 0.37 0.43 0.54 0.62 0.60 0.65 0.69 0.72 0.70 0.73 0.76 0.76 0.76 0.78 0.77 0.74 0.74 0.73 0.74 0.76 0.77 0.78 0.79 0.82 0.84 0.88 0.93 1.01 1.04 1.08 1.07 1.02 1.01 1.02 1.04
0.22 0.22 0.21 0.22 0.23 0.25 0.29 0.34 0.41 0.47 0.53 0.58 0.64 0.68 0.72 0.72 0.73 0.77 0.76 0.75 0.76 0.76 0.72 0.70 0.72 0.73 0.74 0.70 0.65 0.62 0.63 0.62 0.66 0.74 0.80 0.88 0.93 0.97 0.99 0.97 0.99 1.03 1.03
0.22 0.26 0.28 0.30 0.31 0.32 0.35 0.40 0.46 0.49 0.52 0.56 0.62 0.70 0.73 0.74 0.75 0.76 0.73 0.70 0.72 0.70 0.66 0.64 0.63 0.66 0.66 0.62 0.56 0.53 0.50 0.47 0.50 0.58 0.62 0.72 0.82 0.88 0.92 0.96 0.94 0.98 0.98